Location: B?jaj?g
(11.7167°N, 92.6667°E)
Time: 13:33:48
(UTC+00:00)

Meteor 1-14 Rocket - Pass Details

Date: 18 September 2020
Orbit: 833 x 919 km, 81.3° (Epoch: 25 October)

Event Time Altitude Azimuth Distance (km) Brightness Sun altitude
Rises 21:42:35 0° 356° (N) 3,382 7.4 -29.1°
Reaches altitude 10° 21:45:00 10° 358° (N) 2,442 6.6 -28.5°
Maximum altitude 21:50:31 80° 85° (E) 846 4.1 -27.2°
Drops below altitude 10° 21:56:01 10° 172° (S) 2,438 6.6 -25.9°
Sets 21:58:25 0° 173° (S) 3,376 7.3 -25.3°
